Location: Erdweis
(48.5167°N, 15.3500°E)
Time: 14:05:59
(UTC+00:00)

NOSS 2-2 (C) - Pass Details

Date: 17 January 2021
Orbit: 463 x 1745 km, 63.3° (Epoch: 03 March)

Event Time Altitude Azimuth Distance (km) Brightness Sun altitude
Rises 18:19:51 0° 316° (NW) 2,779 7.5 -26.9°
Reaches altitude 10° 18:22:40 10° 339° (NNW) 2,040 6.4 -27.4°
Enters shadow 18:23:51 14° 354° (N) 1,866 6.0 -27.6°
